Group_ship,Cruise,JD_GMT,Date_DDMMYYYY,TIME_HH:MM:SS,Lat_dec_degree,Long_dec_degree,xCO2eq_ppm,xCO2a_ppm,Pres_Equi_hPa,Pres_sealevel_hPa,EqTemp_C,SST(TSG)_C,Sal(TSG)_Permil,Water_flow_l/min,Gasflow_IR_ml/min,Temp_IR_C,Pres_IR_hPa,Ship_heading_true_degree,Ship_speed_knot,Wind_dir_rel_degree,Wind_speed_rel_m/s,fCO2W@SST_uatm,Qcflag_water,fCO2a_uatm,Qcflag_air,dfCO2_uatm,Fluoro_ug/l,Wind_speed_true_m/s,Wind_dir_true_degree,Air_temp_C,Oxygen
AOML_Explorer,Ex0548W,339.024,5122005,0:34:25,25.45,-79.991,361.61,-9,1018.73,1015.87,25.31,25.51,36.2,0.87,85.74,30.93,1018.73,187.7,17.2,305,12.35,353.68,2,-9,9,-9,0.09,10.72,85.32,23.29,231.43
AOML_Explorer,Ex0548W,339.026,5122005,0:36:58,25.437,-79.993,361.23,-9,1018.58,1015.8,25.31,25.51,36.2,0.9,85.49,30.93,1018.58,187,17.3,302,12.87,353.32,2,-9,9,-9,0.09,11.4,84.67,23.34,231.42
AOML_Explorer,Ex0548W,339.027,5122005,0:39:31,25.425,-79.994,360.97,-9,1018.63,1015.69,25.31,25.5,36.2,0.91,85.60,30.93,1018.63,187.2,17.4,304,13.9,352.97,2,-9,9,-9,0.09,11.9,89.46,23.34,231.45
AOML_Explorer,Ex0548W,339.029,5122005,0:42:04,25.413,-79.996,360.7,-9,1018.68,1015.64,25.3,25.49,36.19,0.86,85.39,30.93,1018.68,185.5,17.5,306,14.41,352.77,2,-9,9,-9,0.09,11.98,90.79,23.4,231.47
AOML_Explorer,Ex0548W,339.031,5122005,0:44:37,25.4,-79.997,360.56,-9,1018.63,1015.77,25.3,25.49,36.19,0.89,85.61,30.93,1018.63,183.7,17.6,305,13.38,352.62,2,-9,9,-9,0.11,11.35,84.79,23.41,231.4
AOML_Explorer,Ex0548W,339.033,5122005,0:47:10,25.388,-79.998,360.28,-9,1018.76,1015.73,25.29,25.47,36.2,0.92,85.83,30.93,1018.76,184.1,17.8,308,14.93,352.2,2,-9,9,-9,0.09,12.02,92.62,23.44,231.59
AOML_Explorer,Ex0548W,339.035,5122005,0:49:43,25.375,-79.999,360.08,-9,1018.58,1015.64,25.29,25.44,36.2,0.93,85.62,30.93,1018.58,184.5,17.7,309,14.41,351.51,2,-9,9,-9,0.1,11.48,92.56,23.42,231.44
AOML_Explorer,Ex0548W,339.036,5122005,0:52:16,25.362,-80,359.94,-9,1018.53,1015.58,25.27,25.41,36.21,0.93,85.59,30.93,1018.53,184.4,17.8,307,14.41,351.3,2,-9,9,-9,0.09,11.75,90.62,23.44,231.44
AOML_Explorer,Ex0548W,339.038,5122005,0:54:49,25.35,-80.001,359.8,-9,1018.65,1015.54,25.24,25.41,36.2,0.88,85.64,30.93,1018.65,184.2,17.7,308,14.41,351.55,2,-9,9,-9,0.11,11.54,91.86,23.49,231.5
AOML_Explorer,Ex0548W,339.04,5122005,0:57:22,25.337,-80.002,359.86,-9,1018.63,1015.76,25.22,25.4,36.2,0.88,85.67,30.94,1018.63,183.9,17.8,311,14.41,351.83,2,-9,9,-9,0.11,11.05,94.39,23.48,231.47
AOML_Explorer,Ex0548W,339.042,5122005,0:59:55,25.324,-80.003,359.85,-9,1018.87,1015.64,25.22,25.41,36.2,0.95,86.03,30.93,1018.87,184.4,17.8,306,13.38,352.11,2,-9,9,-9,0.12,11.11,86.44,23.56,231.45
AOML_Explorer,Ex0548W,339.058,5122005,1:24:13,25.199,-80.01,361.21,-9,1018.71,1015.51,25.52,25.75,36.16,0.97,85.66,31,1018.71,182.8,19.3,302,16.47,353.58,2,-9,9,-9,0.12,13.98,88.05,23.62,230.75
AOML_Explorer,Ex0548W,339.06,5122005,1:26:46,25.186,-80.011,361.65,-9,1018.68,1015.55,25.52,25.74,36.17,0.94,85.70,31,1018.68,183.1,19.4,303,15.44,353.87,2,-9,9,-9,0.12,13.06,86.09,23.59,230.71
AOML_Explorer,Ex0548W,339.062,5122005,1:29:19,25.172,-80.012,361.81,-9,1018.67,1015.57,25.53,25.69,36.19,0.95,85.61,31,1018.67,183.1,19.5,300,14.41,353.26,2,-9,9,-9,0.14,12.82,80.21,23.61,230.58
AOML_Explorer,Ex0548W,339.064,5122005,1:31:52,25.158,-80.013,362.21,-9,1018.69,1015.54,25.51,25.63,36.23,0.93,85.10,31,1018.69,182.5,19.6,305,13.9,353.23,2,-9,9,-9,0.12,11.56,82.08,23.6,230.37
AOML_Explorer,Ex0548W,339.066,5122005,1:34:25,25.144,-80.013,362.51,-9,1018.95,1015.55,25.47,25.61,36.25,0.92,85.63,31.01,1018.95,182.3,19.6,300,15.44,353.86,2,-9,9,-9,0.19,13.52,82.58,23.61,230.24
AOML_Explorer,Ex0548W,339.067,5122005,1:36:58,25.13,-80.014,363.16,-9,1018.71,1015.4,25.45,25.56,36.29,0.96,86.11,31.01,1018.71,181.8,19.8,305,16.99,353.98,2,-9,9,-9,0.21,13.74,90.93,23.6,229.63
AOML_Explorer,Ex0548W,339.069,5122005,1:39:31,25.116,-80.014,363.63,-9,1018.71,1015.44,25.41,25.6,36.27,0.88,86.29,31,1018.71,180.6,19.5,303,16.47,355.55,2,-9,9,-9,0.2,13.47,88.3,23.61,229.35
AOML_Explorer,Ex0548W,339.071,5122005,1:42:04,25.102,-80.014,364.6,-9,1018.71,1015.58,25.36,25.72,36.16,0.82,85.69,31,1018.71,180.3,19.1,300,15.96,358.68,2,-9,9,-9,0.11,13.42,85.19,23.59,230.21
AOML_Explorer,Ex0548W,339.073,5122005,1:44:37,25.089,-80.015,365.76,-9,1018.65,1015.49,25.4,25.69,36.19,0.86,85.78,31,1018.65,179.6,19.2,300,15.44,358.94,2,-9,9,-9,0.1,13.02,83.28,23.6,231.23
AOML_Explorer,Ex0548W,339.074,5122005,1:47:10,25.075,-80.015,365.41,-9,1018.87,1015.54,25.48,25.9,36.09,0.85,85.60,30.99,1018.87,181.8,18.9,295,14.41,360.29,2,-9,9,-9,0.1,13.19,78.08,23.62,231.06
AOML_Explorer,Ex0548W,339.076,5122005,1:49:43,25.062,-80.016,364.59,-9,1018.61,1015.64,25.51,25.99,36.11,0.87,84.87,30.99,1018.61,187.4,18.7,296,14.41,360.11,2,-9,9,-9,0.1,13.07,84.59,23.59,230.46
AOML_Explorer,Ex0548W,339.078,5122005,1:52:16,25.049,-80.019,363.8,-9,1018.61,1015.56,25.65,26.03,36.11,0.84,85.79,30.99,1018.61,193.6,18.7,295,14.93,357.99,2,-9,9,-9,0.1,13.79,90.69,23.64,230.24
AOML_Explorer,Ex0548W,339.08,5122005,1:54:49,25.036,-80.023,363.58,-9,1018.78,1015.61,25.73,26.06,36.1,0.84,85.94,30.98,1018.78,199.8,18.8,287,13.9,357.09,2,-9,9,-9,0.1,14.46,86.72,23.69,230.01
AOML_Explorer,Ex0548W,339.082,5122005,1:57:22,25.024,-80.028,363.58,-9,1018.94,1015.57,25.77,26.07,36.11,0.83,85.93,30.98,1018.94,205.8,18.6,287,13.38,356.75,2,-9,9,-9,0.1,14.16,91.16,23.65,229.87
AOML_Explorer,Ex0548W,339.083,5122005,1:59:55,25.012,-80.035,363.6,-9,1019.1,1015.9,25.8,26.07,36.11,0.81,85.68,30.97,1019.1,211.5,18.8,289,11.32,356.46,2,-9,9,-9,0.1,12.46,91.57,23.66,229.84
AOML_Explorer,Ex0548W,339.098,5122005,2:21:40,24.921,-80.113,363.82,-9,1018.96,1016.2,25.84,26.13,36.11,0.84,85.06,31.02,1018.96,218.1,19.1,293,10.29,356.87,2,-9,9,-9,0.11,11.56,94.95,23.64,229.74
AOML_Explorer,Ex0548W,339.1,5122005,2:24:13,24.911,-80.122,364.13,-9,1018.73,1015.85,25.85,26.11,36.13,0.86,85.74,31.01,1018.73,218.6,19.2,289,11.32,356.65,2,-9,9,-9,0.1,12.88,96.46,23.77,229.63
AOML_Explorer,Ex0548W,339.102,5122005,2:26:46,24.9,-80.131,364.57,-9,1018.84,1015.91,25.87,26.09,36.12,0.88,85.44,31.01,1018.84,218.4,19.2,294,11.84,356.6,2,-9,9,-9,0.1,12.48,101.07,23.75,229.63
AOML_Explorer,Ex0548W,339.104,5122005,2:29:19,24.889,-80.14,364.85,-9,1018.94,1016.06,25.85,26.04,36.12,0.84,85.66,31.01,1018.94,218.6,19.1,290,10.29,356.56,2,-9,9,-9,0.11,12.03,93.57,23.74,229.68
AOML_Explorer,Ex0548W,339.105,5122005,2:31:52,24.879,-80.15,364.96,-9,1018.81,1015.92,25.82,25.97,36.15,0.9,85.87,31.01,1018.81,218.5,19.3,292,11.32,355.95,2,-9,9,-9,0.1,12.5,97.93,23.76,229.8
AOML_Explorer,Ex0548W,339.107,5122005,2:34:25,24.868,-80.159,365.04,-9,1018.79,1015.91,25.79,25.83,36.17,0.89,85.59,31,1018.79,218.3,19.3,284,11.32,354.73,2,-9,9,-9,0.11,13.61,93.14,23.7,230.07
AOML_Explorer,Ex0548W,339.109,5122005,2:36:58,24.857,-80.169,365,-9,1018.66,1015.97,25.72,25.65,36.22,0.84,85.33,31,1018.66,217.8,19.6,294,11.84,353.25,2,-9,9,-9,0.14,12.46,100.12,23.73,230.21
AOML_Explorer,Ex0548W,339.111,5122005,2:39:31,24.846,-80.178,364.73,-9,1018.66,1015.83,25.59,25.55,36.23,0.88,86.18,30.99,1018.66,217.1,19.9,291,11.84,353.5,2,-9,9,-9,0.12,12.87,97.45,23.71,230.4
AOML_Explorer,Ex0548W,339.113,5122005,2:42:04,24.835,-80.187,364.62,-9,1018.8,1015.89,25.45,25.58,36.19,0.82,85.75,30.99,1018.8,220.7,20,295,11.32,355.8,2,-9,9,-9,0.1,11.89,101.59,23.73,230.84
AOML_Explorer,Ex0548W,339.114,5122005,2:44:37,24.825,-80.198,364.3,-9,1018.86,1015.99,25.39,25.46,36.24,0.89,86.34,30.98,1018.86,226.4,20,297,9.78,354.75,2,-9,9,-9,0.09,10.77,101.67,23.72,231.12
AOML_Explorer,Ex0548W,339.116,5122005,2:47:10,24.816,-80.21,363.65,-9,1018.91,1016.23,25.38,25.34,36.24,0.89,85.87,30.97,1018.91,232.4,19.9,296,8.75,352.7,2,-9,9,-9,0.11,10.47,102.35,23.74,231.49
AOML_Explorer,Ex0548W,339.118,5122005,2:49:43,24.808,-80.223,362.98,-9,1018.92,1016.25,25.28,25.35,36.22,0.87,85.77,30.97,1018.92,237.2,20,296,8.75,353.51,2,-9,9,-9,0.09,10.55,107.06,23.72,231.6
AOML_Explorer,Ex0548W,339.12,5122005,2:52:16,24.8,-80.236,362.53,-9,1018.77,1016.15,25.19,25.41,36.19,0.84,85.83,30.96,1018.77,233.1,19.9,292,9.78,355.06,2,-9,9,-9,0.1,11.65,105.69,23.77,231.55
AOML_Explorer,Ex0548W,339.121,5122005,2:54:49,24.791,-80.248,362.1,-9,1018.79,1016.05,25.19,25.53,36.15,0.85,86.08,30.96,1018.79,232.4,19.7,289,8.75,356.17,2,-9,9,-9,0.08,11.33,100.1,23.72,231.88
AOML_Explorer,Ex0548W,339.123,5122005,2:57:22,24.783,-80.26,361.35,-9,1018.83,1016.09,25.21,26,36.06,0.86,85.74,30.95,1018.83,231.8,19.5,289,8.24,361.41,2,-9,9,-9,0.08,10.92,97.73,23.78,231.21
AOML_Explorer,Ex0548W,339.125,5122005,2:59:55,24.774,-80.272,360.74,-9,1018.8,1015.93,25.4,26.09,36.1,0.88,85.73,30.95,1018.8,232.3,19.4,287,10.81,359.26,2,-9,9,-9,0.1,12.73,107.54,23.88,230.91
AOML_Explorer,Ex0548W,339.14,5122005,3:21:40,24.704,-80.375,360.34,-9,1018.47,1015.79,25.87,25.86,36.19,0.89,86.00,30.98,1018.47,232.9,19.2,294,10.81,349.35,2,-9,9,-9,0.09,11.79,111.97,23.98,230.29
AOML_Explorer,Ex0548W,339.142,5122005,3:24:13,24.696,-80.387,360.61,-9,1018.45,1015.63,25.79,25.71,36.17,0.88,85.70,30.98,1018.45,232.7,19.2,286,9.78,348.7,2,-9,9,-9,0.09,12.2,103.87,24.06,230.75
AOML_Explorer,Ex0548W,339.144,5122005,3:26:46,24.688,-80.399,360.95,-9,1018.46,1015.85,25.63,25.67,36.19,0.82,85.69,30.97,1018.46,232.6,19,291,9.78,350.78,2,-9,9,-9,0.09,11.45,106.78,23.99,230.93
AOML_Explorer,Ex0548W,339.145,5122005,3:29:19,24.679,-80.411,360.92,-9,1018.5,1015.67,25.52,25.72,36.16,0.83,86.10,30.97,1018.5,232.4,19,286,11.32,352.84,2,-9,9,-9,0.09,13.14,109.38,24.03,231.07
AOML_Explorer,Ex0548W,339.147,5122005,3:31:52,24.671,-80.423,360.82,-9,1018.44,1015.35,25.49,25.7,36.17,0.88,85.82,30.97,1018.44,232.4,19,288,12.35,352.81,2,-9,9,-9,0.1,13.58,113.71,24.11,231.11
AOML_Explorer,Ex0548W,339.149,5122005,3:34:25,24.663,-80.434,360.67,-9,1018.46,1015.38,25.5,25.73,36.13,0.86,86.20,30.97,1018.46,233,19,287,11.84,352.99,2,-9,9,-9,0.09,13.39,112.14,24.12,231.22
AOML_Explorer,Ex0548W,339.151,5122005,3:36:58,24.655,-80.446,360.39,-9,1018.43,1015.67,25.48,25.76,36.14,0.87,86.49,30.96,1018.43,235.3,19.1,289,9.78,353.43,2,-9,9,-9,0.09,11.71,108.31,24.11,231.21
AOML_Explorer,Ex0548W,339.152,5122005,3:39:31,24.648,-80.459,360.32,-9,1018.39,1015.58,25.51,25.72,36.17,0.88,86.09,30.95,1018.39,241.6,19.2,288,10.29,352.37,2,-9,9,-9,0.09,12.31,115.54,24.13,231.2
AOML_Explorer,Ex0548W,339.154,5122005,3:42:04,24.642,-80.473,360.1,-9,1018.3,1015.48,25.53,25.65,36.18,0.89,86.21,30.95,1018.3,246.2,19.5,287,9.78,351.03,2,-9,9,-9,0.1,12.35,116.71,24.12,231.2
AOML_Explorer,Ex0548W,339.156,5122005,3:44:37,24.636,-80.486,359.94,-9,1018.27,1015.53,25.48,25.55,36.21,0.85,86.02,30.94,1018.27,242.4,19.5,286,9.26,350.08,2,-9,9,-9,0.1,12.13,110.68,24.09,231.19
AOML_Explorer,Ex0548W,339.158,5122005,3:47:10,24.629,-80.5,360.02,-9,1018.2,1015.42,25.44,25.47,36.22,0.85,85.96,30.94,1018.2,242.7,19.7,286,10.81,349.82,2,-9,9,-9,0.11,13.1,116.3,24.11,231.38
AOML_Explorer,Ex0548W,339.16,5122005,3:49:43,24.623,-80.514,359.89,-9,1018.16,1015.33,25.36,25.36,36.23,0.86,86.46,30.93,1018.16,241.6,19.9,289,9.26,349.25,2,-9,9,-9,0.15,11.77,110.77,24.12,231.52
AOML_Explorer,Ex0548W,339.161,5122005,3:52:16,24.616,-80.527,360.09,-9,1018.15,1015.3,25.28,25.3,36.22,0.87,86.32,30.93,1018.15,240.8,20.1,284,10.81,349.72,2,-9,9,-9,0.24,13.4,112.94,24.1,231.75
AOML_Explorer,Ex0548W,339.163,5122005,3:54:49,24.609,-80.541,360.23,-9,1018.12,1015.37,25.19,25.24,36.18,0.85,86.20,30.92,1018.12,240.5,20.2,290,9.26,350.38,2,-9,9,-9,0.28,11.65,109.79,24.14,232.13
AOML_Explorer,Ex0548W,339.165,5122005,3:57:22,24.602,-80.555,360.83,-9,1017.98,1015.01,25.13,25.17,36.12,0.84,86.01,30.92,1017.98,240.2,20.2,290,10.81,350.73,2,-9,9,-9,0.35,12.52,115.55,24.14,232.54
AOML_Explorer,Ex0548W,339.167,5122005,3:59:55,24.594,-80.568,361.69,-9,1018.05,1015.03,25.07,25.15,36.11,0.85,85.99,30.92,1018.05,239.5,20.3,285,11.32,352.24,2,-9,9,-9,0.34,13.52,114.09,24.16,232.12
AOML_Explorer,Ex0548W,339.182,5122005,4:21:40,24.532,-80.686,364.37,-9,1017.83,1014.78,25.04,25.17,36.11,0.83,85.67,30.95,1017.83,239.7,20.6,288,12.35,355.48,2,-9,9,-9,0.33,13.87,118.54,24.22,233.14
AOML_Explorer,Ex0548W,339.183,5122005,4:24:13,24.525,-80.7,364.99,-9,1017.85,1014.95,24.99,25.33,36.17,0.79,85.20,30.95,1017.85,239.3,20.6,284,10.81,358.78,2,-9,9,-9,0.14,13.39,111.27,24.13,233.33
AOML_Explorer,Ex0548W,339.185,5122005,4:26:46,24.517,-80.714,365.6,-9,1017.7,1014.82,25.02,25.34,36.25,0.84,85.42,30.95,1017.7,239.6,20.5,286,11.32,359.08,2,-9,9,-9,0.14,13.42,114.42,24.18,232.16
AOML_Explorer,Ex0548W,339.187,5122005,4:29:19,24.51,-80.728,365.4,-9,1017.68,1014.79,25.11,25.32,36.24,0.83,85.79,30.95,1017.68,239.7,20.4,285,12.35,357.25,2,-9,9,-9,0.18,14.22,117.25,24.22,231.9
AOML_Explorer,Ex0548W,339.189,5122005,4:31:52,24.503,-80.741,365.35,-9,1017.78,1014.82,25.13,25.32,36.23,0.83,86.23,30.94,1017.78,239.9,20.4,290,10.81,356.98,2,-9,9,-9,0.15,12.49,115.07,24.23,231.92
AOML_Explorer,Ex0548W,339.191,5122005,4:34:25,24.495,-80.755,365.4,-9,1017.72,1014.84,25.12,25.33,36.24,0.81,85.67,30.94,1017.72,236.5,20.3,282,10.81,357.3,2,-9,9,-9,0.13,13.62,107.83,24.23,232
AOML_Explorer,Ex0548W,339.192,5122005,4:36:58,24.488,-80.768,365.41,-9,1017.57,1014.61,25.13,25.31,36.25,0.8,85.56,30.93,1017.57,237.9,20.3,285,11.32,356.93,2,-9,9,-9,0.12,13.52,112.47,24.22,232.08
AOML_Explorer,Ex0548W,339.194,5122005,4:39:31,24.48,-80.782,365.17,-9,1017.68,1014.65,25.13,25.33,36.25,0.83,85.35,30.93,1017.68,238,20.3,283,11.84,356.95,2,-9,9,-9,0.13,14.17,112.89,24.23,232.18
AOML_Explorer,Ex0548W,339.196,5122005,4:42:04,24.472,-80.795,365.09,-9,1017.68,1014.57,25.12,25.33,36.25,0.85,86.03,30.92,1017.68,237.7,20.3,282,11.84,356.98,2,-9,9,-9,0.13,14.29,112.22,24.27,232.07
AOML_Explorer,Ex0548W,339.198,5122005,4:44:37,24.464,-80.809,364.86,-9,1017.78,1014.74,25.13,25.31,36.25,0.87,86.34,30.92,1017.78,238,20.4,283,11.32,356.53,2,-9,9,-9,0.14,13.89,111.15,24.29,232.05
AOML_Explorer,Ex0548W,339.199,5122005,4:47:10,24.457,-80.822,364.61,-9,1017.6,1014.58,25.13,25.33,36.23,0.84,85.87,30.91,1017.6,238.2,20.2,288,12.35,356.41,2,-9,9,-9,0.12,13.77,117.74,24.32,232.21
AOML_Explorer,Ex0548W,339.201,5122005,4:49:43,24.449,-80.835,364.6,-9,1017.65,1014.56,25.12,25.32,36.22,0.81,85.89,30.91,1017.65,237.8,20.2,287,12.35,356.43,2,-9,9,-9,0.12,13.92,116.75,24.29,232.03
AOML_Explorer,Ex0548W,339.203,5122005,4:52:16,24.442,-80.849,364.29,-9,1017.61,1014.67,25.11,25.3,36.23,0.77,85.56,30.91,1017.61,238,20.2,284,11.32,355.99,2,-9,9,-9,0.12,13.69,112.03,24.33,232.34
AOML_Explorer,Ex0548W,339.205,5122005,4:54:49,24.434,-80.862,364.04,-9,1017.55,1014.47,25.1,25.32,36.25,0.79,86.16,30.9,1017.55,238.2,20.2,287,11.32,356,2,-9,9,-9,0.11,13.27,113.79,24.31,232.33
AOML_Explorer,Ex0548W,339.207,5122005,4:57:22,24.426,-80.876,363.69,-9,1017.52,1014.45,25.11,25.32,36.25,0.84,86.08,30.9,1017.52,238.2,20.2,284,12.87,355.6,2,-9,9,-9,0.14,14.76,116.6,24.37,232.27
AOML_Explorer,Ex0548W,339.208,5122005,4:59:55,24.419,-80.889,363.5,-9,1017.29,1014.43,25.11,25.31,36.25,0.85,85.71,30.9,1017.29,237.9,20.2,283,11.84,355.18,2,-9,9,-9,0.14,14.22,112.89,24.34,232.01
AOML_Explorer,Ex0548W,339.218,5122005,5:14:01,24.378,-80.962,362.08,-9,1017.32,1014.34,25.12,25.25,36.19,0.85,85.25,30.93,1017.32,238.3,19.8,286,12.35,353.02,2,-9,9,-9,0.19,13.99,117.25,24.38,232.58
AOML_Explorer,Ex0548W,339.22,5122005,5:16:34,24.37,-80.975,362.35,-9,1017.08,1014.47,25.06,25.15,36.19,0.86,85.57,30.94,1017.08,237.7,19.8,285,11.32,352.62,2,-9,9,-9,0.35,13.37,113.18,24.43,232.29
AOML_Explorer,Ex0548W,339.222,5122005,5:19:07,24.363,-80.988,362.91,-9,1017.15,1014.28,25.04,24.93,36.08,0.86,84.93,30.95,1017.15,237.5,19.7,292,11.32,350.58,2,-9,9,-9,0.45,12.3,117.21,24.37,231.5
AOML_Explorer,Ex0548W,339.267,5122005,6:24:13,24.181,-81.331,362.03,-9,1016.62,1014.02,25.02,25.29,36.19,0.93,85.34,31.01,1016.62,240.5,20,280,10.29,354.49,2,-9,9,-9,0.1,13.09,111.1,24.51,231.84
AOML_Explorer,Ex0548W,339.269,5122005,6:26:46,24.174,-81.344,361.53,-9,1016.61,1014,25.02,25.36,36.21,0.93,85.44,31.01,1016.61,240.9,20.1,278,8.75,354.9,2,-9,9,-9,0.09,12.42,104.94,24.52,231.68
AOML_Explorer,Ex0548W,339.27,5122005,6:29:19,24.167,-81.358,361.13,-9,1016.56,1014.12,25.07,25.33,36.22,0.84,85.40,31.01,1016.56,242.9,20.2,280,9.26,353.44,2,-9,9,-9,0.11,12.46,109.66,24.54,231.57
AOML_Explorer,Ex0548W,339.272,5122005,6:31:52,24.161,-81.372,360.93,-9,1016.47,1013.65,25.11,25.36,36.22,0.88,85.70,31.01,1016.47,242.3,20.3,285,10.29,353.02,2,-9,9,-9,0.1,12.42,114.95,24.58,231.5
AOML_Explorer,Ex0548W,339.274,5122005,6:34:25,24.154,-81.386,360.94,-9,1016.46,1013.87,25.11,25.57,36.12,0.84,85.67,31.01,1016.46,242.7,20.1,282,10.29,355.84,2,-9,9,-9,0.07,12.81,114.14,24.6,231.53
AOML_Explorer,Ex0548W,339.276,5122005,6:36:58,24.148,-81.4,360.91,-9,1016.49,1013.96,25.15,25.71,36.11,0.88,85.42,31,1016.49,242.7,20.1,280,9.78,357.14,2,-9,9,-9,0.08,12.8,111.29,24.62,231.45
AOML_Explorer,Ex0548W,339.277,5122005,6:39:31,24.141,-81.414,360.63,-9,1016.46,1013.9,25.28,25.79,36.12,0.83,85.36,31,1016.46,242.4,20.1,275,10.29,355.95,2,-9,9,-9,0.08,13.74,110.48,24.64,231.24
AOML_Explorer,Ex0548W,339.279,5122005,6:42:04,24.135,-81.428,360.19,-9,1016.52,1013.72,25.41,25.84,36.12,0.84,85.63,31,1016.52,242.1,20.1,274,10.29,354.5,2,-9,9,-9,0.08,13.95,109.42,24.69,230.93
AOML_Explorer,Ex0548W,339.281,5122005,6:44:37,24.128,-81.441,359.98,-9,1016.41,1013.81,25.49,25.89,36.13,0.86,85.59,31,1016.41,241.8,20.2,281,10.29,353.82,2,-9,9,-9,0.09,12.99,112.66,24.72,230.68
AOML_Explorer,Ex0548W,339.283,5122005,6:47:10,24.121,-81.455,359.8,-9,1016.42,1014.06,25.55,25.92,36.12,0.8,85.39,31,1016.42,241.7,20.2,280,9.26,353.27,2,-9,9,-9,0.08,12.47,108.41,24.69,230.49
AOML_Explorer,Ex0548W,339.285,5122005,6:49:43,24.114,-81.469,360.22,-9,1016.53,1013.93,25.59,25.97,36.12,0.83,85.45,31,1016.53,241.6,20.2,289,9.78,353.74,2,-9,9,-9,0.09,11.55,114.21,24.7,230.2
AOML_Explorer,Ex0548W,339.286,5122005,6:52:16,24.108,-81.483,360.21,-9,1016.42,1013.94,25.63,26.01,36.12,0.88,85.66,31,1016.42,241.7,20.3,287,9.26,353.66,2,-9,9,-9,0.09,11.59,111.1,24.72,230.15
AOML_Explorer,Ex0548W,339.288,5122005,6:54:49,24.101,-81.497,360.3,-9,1016.39,1013.87,25.67,26.11,36.11,0.77,85.65,31,1016.39,241.6,20.2,283,10.29,354.45,2,-9,9,-9,0.09,12.7,113.38,24.67,229.8
AOML_Explorer,Ex0548W,339.29,5122005,6:57:22,24.094,-81.51,360.37,-9,1016.4,1013.92,25.72,26.09,36.13,0.88,86.20,31,1016.4,241.9,20.2,284,9.78,353.72,2,-9,9,-9,0.1,12.28,112.18,24.69,229.57
AOML_Explorer,Ex0548W,339.292,5122005,6:59:55,24.087,-81.524,360.94,-9,1016.36,1013.84,25.78,26.12,36.11,0.82,85.70,31,1016.36,242,20.1,282,8.75,353.79,2,-9,9,-9,0.09,11.97,107.46,24.75,229.51
AOML_Explorer,Ex0548W,339.308,5122005,7:24:13,24.023,-81.655,363.49,-9,1015.98,1013.4,26.13,26.5,36.09,0.86,85.44,31.07,1015.98,241.7,20.1,290,10.29,356.29,2,-9,9,-9,0.09,11.67,117.06,24.78,228.21
AOML_Explorer,Ex0548W,339.31,5122005,7:26:46,24.016,-81.669,363.78,-9,1016.02,1013.59,26.15,26.51,36.08,0.81,85.55,31.07,1016.02,241.7,20,297,9.26,356.46,2,-9,9,-9,0.08,10.04,115.99,24.75,228.25
AOML_Explorer,Ex0548W,339.312,5122005,7:29:19,24.009,-81.682,364.08,-9,1015.85,1013.43,26.16,26.53,36.08,0.86,85.18,31.07,1015.85,241.9,20.1,294,11.32,356.7,2,-9,9,-9,0.08,11.68,123.43,24.74,228.04
AOML_Explorer,Ex0548W,339.314,5122005,7:31:52,24.003,-81.696,364.17,-9,1015.9,1013.31,26.17,26.54,36.08,0.88,84.78,31.07,1015.9,241.7,20.1,294,11.84,356.75,2,-9,9,-9,0.08,12.01,125.24,24.77,228.22
AOML_Explorer,Ex0548W,339.316,5122005,7:34:25,23.996,-81.71,364.48,-9,1015.85,1013.46,26.19,26.55,36.08,0.87,85.11,31.07,1015.85,241.9,20.1,293,10.81,357.07,2,-9,9,-9,0.08,11.52,120.85,24.79,228.09
AOML_Explorer,Ex0548W,339.317,5122005,7:36:58,23.989,-81.724,364.6,-9,1015.89,1013.44,26.2,26.58,36.08,0.89,84.83,31.07,1015.89,242.2,20.1,296,11.84,357.35,2,-9,9,-9,0.08,11.67,126.92,24.82,228.06
AOML_Explorer,Ex0548W,339.319,5122005,7:39:31,23.983,-81.738,364.91,-9,1015.86,1013.32,26.21,26.59,36.08,0.85,85.35,31.07,1015.86,241.5,20.2,296,12.35,357.61,2,-9,9,-9,0.09,12.01,127.97,24.72,228.06
AOML_Explorer,Ex0548W,339.321,5122005,7:42:04,23.976,-81.751,365.17,-9,1015.81,1013.17,26.23,26.6,36.08,0.89,85.36,31.07,1015.81,241.8,20.2,298,11.84,357.72,2,-9,9,-9,0.09,11.36,127.56,24.74,228.03
AOML_Explorer,Ex0548W,339.323,5122005,7:44:37,23.969,-81.765,365.28,-9,1015.8,1013.27,26.25,26.61,36.08,0.86,85.19,31.07,1015.8,241.7,20.3,293,11.84,357.75,2,-9,9,-9,0.09,12.17,124.17,24.71,227.87
AOML_Explorer,Ex0548W,339.324,5122005,7:47:10,23.963,-81.779,365.56,-9,1015.8,1013.16,26.26,26.63,36.08,0.83,85.31,31.07,1015.8,242.3,20.2,296,13.38,358.16,2,-9,9,-9,0.1,12.73,132.28,24.67,227.88
AOML_Explorer,Ex0548W,339.326,5122005,7:49:43,23.956,-81.793,365.7,-9,1015.76,1013.23,26.27,26.65,36.09,0.91,84.61,31.07,1015.76,241.8,20.2,297,12.35,358.3,2,-9,9,-9,0.09,11.84,128.94,24.68,227.68
AOML_Explorer,Ex0548W,339.328,5122005,7:52:16,23.949,-81.807,365.93,-9,1015.74,1013.13,26.28,26.66,36.09,0.88,84.88,31.07,1015.74,242.6,20.2,296,12.35,358.44,2,-9,9,-9,0.1,12.09,128.77,24.74,227.69
AOML_Explorer,Ex0548W,339.33,5122005,7:54:49,23.943,-81.821,366.26,-9,1015.66,1012.82,26.3,26.66,36.09,0.88,84.91,31.07,1015.66,242.1,20.3,296,13.9,358.61,2,-9,9,-9,0.09,13.14,133.27,24.89,227.61
AOML_Explorer,Ex0548W,339.332,5122005,7:57:22,23.936,-81.835,366.63,-9,1015.65,1012.9,26.31,26.67,36.09,0.92,85.01,31.07,1015.65,241.7,20.3,295,13.9,358.94,2,-9,9,-9,0.1,13.28,132.23,24.88,227.47
AOML_Explorer,Ex0548W,339.333,5122005,7:59:55,23.929,-81.849,366.84,-9,1015.53,1012.63,26.32,26.68,36.09,0.86,85.43,31.07,1015.53,241.5,20.4,294,14.93,359.06,2,-9,9,-9,0.1,14.29,133.82,25.03,227.5
AOML_Explorer,Ex0548W,339.352,5122005,8:26:46,23.856,-81.996,369.44,-9,1015.4,1012.67,26.38,26.75,36.11,0.88,85.30,31.12,1015.4,241.2,20.5,291,14.41,361.65,2,-9,9,-9,0.17,14.35,129.96,24.9,226.73
AOML_Explorer,Ex0548W,339.354,5122005,8:29:19,23.849,-82.01,369.92,-9,1015.42,1012.46,26.38,26.75,36.13,0.87,84.75,31.12,1015.42,241.9,20.5,293,15.44,362.13,2,-9,9,-9,0.16,14.86,134.62,24.93,226.36
AOML_Explorer,Ex0548W,339.355,5122005,8:31:52,23.843,-82.024,370.42,-9,1015.43,1012.67,26.39,26.75,36.14,0.89,85.04,31.12,1015.43,241.3,20.5,295,14.41,362.49,2,-9,9,-9,0.17,13.69,132.96,24.97,226.32
AOML_Explorer,Ex0548W,339.357,5122005,8:34:25,23.836,-82.038,371.12,-9,1015.38,1012.85,26.4,26.76,36.15,1.04,84.73,31.12,1015.38,241.9,20.4,299,13.9,363.08,2,-9,9,-9,0.16,12.63,135.09,24.91,226.28
AOML_Explorer,Ex0548W,339.359,5122005,8:36:58,23.829,-82.052,371.55,-9,1015.41,1012.71,26.41,26.75,36.14,1.01,84.67,31.12,1015.41,242.1,20.5,291,14.93,363.38,2,-9,9,-9,0.15,14.8,131.86,24.93,226.47
AOML_Explorer,Ex0548W,339.361,5122005,8:39:31,23.822,-82.066,371.76,-9,1015.5,1012.83,26.41,26.74,36.14,1.04,84.80,31.12,1015.5,241.1,20.5,292,13.38,363.41,2,-9,9,-9,0.15,13.43,127.58,24.98,226.58
AOML_Explorer,Ex0548W,339.363,5122005,8:42:04,23.815,-82.08,371.9,-9,1015.45,1012.49,26.41,26.72,36.14,1,85.30,31.12,1015.45,241.4,20.6,287,15.96,363.34,2,-9,9,-9,0.13,16.31,130.4,24.89,226.81
AOML_Explorer,Ex0548W,339.364,5122005,8:44:37,23.808,-82.094,371.76,-9,1015.35,1012.48,26.4,26.7,36.14,1.01,84.59,31.12,1015.35,242.2,20.6,289,14.93,362.99,2,-9,9,-9,0.12,15.24,130.13,24.88,227.13
AOML_Explorer,Ex0548W,339.366,5122005,8:47:10,23.801,-82.109,371.59,-9,1015.62,1012.36,26.38,26.7,36.15,1.04,85.04,31.12,1015.62,242.4,20.7,291,15.44,363.14,2,-9,9,-9,0.13,15.33,132.71,24.89,227.15
AOML_Explorer,Ex0548W,339.368,5122005,8:49:43,23.794,-82.123,371.27,-9,1015.46,1012.5,26.37,26.64,36.16,1,85.31,31.12,1015.46,241.6,20.7,295,16.47,362.23,2,-9,9,-9,0.11,15.4,137.71,24.9,227.4
AOML_Explorer,Ex0548W,339.37,5122005,8:52:16,23.787,-82.137,371.12,-9,1015.49,1012.48,26.36,26.62,36.13,1.05,84.51,31.12,1015.49,242,20.7,295,15.44,361.95,2,-9,9,-9,0.1,14.55,135.76,24.93,227.93
AOML_Explorer,Ex0548W,339.371,5122005,8:54:49,23.78,-82.151,371,-9,1015.46,1012.64,26.32,26.61,36.12,0.97,84.95,31.12,1015.46,241.5,20.6,289,14.93,362.1,2,-9,9,-9,0.1,15.21,129.47,24.91,228.22
AOML_Explorer,Ex0548W,339.373,5122005,8:57:22,23.773,-82.165,370.72,-9,1015.46,1012.75,26.3,26.61,36.11,1.01,85.38,31.12,1015.46,241.2,20.7,286,14.41,362.26,2,-9,9,-9,0.11,15.32,125.72,24.83,228.22